Location: Unspecified
(52.0000°N, 4.4000°E)
Time: 17:07:24
(UTC+00:00)

Geosat FO - Pass Details

Date: 14 May 2025
Orbit: 387 x 491 km, 108.0° (Epoch: 16 June)

Event Time Altitude Azimuth Distance (km) Brightness Sun altitude
Exits shadow 21:29:35 - 81° (E) 1,872 7.3 -13.8°
Reaches altitude 10° 21:31:31 10° 53° (NE) 1,439 7.0 -13.9°
Drops below altitude 10° 21:33:07 10° 23° (NNE) 1,436 7.5 -14.0°
Enters shadow 22:27:55 -69° 147° (SSE) 12,410 11.6 -17.5°
Maximum altitude 23:03:22 72° 57° (ENE) 422 4.2 -18.7°
